Snowfall_Accumulation
0.0 0.0 0.0 0.0 0.0 0.0 0.0 0.0 0.0 0.0 0.0 0.0 0.0 0.0 0.0 0.0 0.0 0.0 0.0 0.0 0.0 7.3 0.1 0.0 0.0 0.3 2.4 3.8 6.1 5.2 5.9 3.3 3.0 3.7 2.1 0.0 1.0 0.0 0.1 0.0 0.0 0.0 0.9 1.3 1.5 3.3 1.4 0.0 0.0 0.1 0.2 0.0 0.0 0.1
0.0 0.0 0.0 0.0 0.0 0.0 0.0 0.0 0.0 0.0 0.0 0.0 0.0 0.0 0.0 0.0 0.0 0.0 0.0 0.0 0.0 0.1 1.0 0.0 0.0 0.0 0.0 0.1 3.0 8.7 4.0 2.1 3.5 3.7 2.4 3.6 2.3 1.3 0.0 0.6 0.1 0.3 0.2 0.2 0.3 0.1 0.3 0.2 0.0 0.1 0.0 0.1 0.1 0.3
0.0 0.0 0.0 0.0 0.0 0.0 0.0 0.0 0.0 0.0 0.0 0.0 0.0 0.0 0.0 0.0 0.0 0.0 0.0 0.0 0.0 3.7 1.4 0.8 0.6 0.1 0.0 0.3 0.4 8.8 8.1 3.7 6.0 2.9 5.5 4.7 4.6 1.5 1.6 1.3 0.4 0.6 0.1 2.1 1.4 0.7 0.3 0.6 0.5 0.2 0.2 0.2 0.0 0.1
0.0 0.0 0.0 0.0 0.0 0.0 0.0 0.0 0.0 0.0 0.0 0.0 0.0 0.0 0.0 0.0 0.0 0.0 0.0 0.0 0.0 6.3 13.2 3.3 0.1 0.1 0.0 0.1 2.1 3.8 5.1 6.1 6.1 4.9 6.5 4.6 3.3 2.5 3.1 0.6 1.0 0.9 1.0 2.6 2.9 0.6 0.5 1.1 0.3 0.1 0.1 0.1 0.0 0.0
0.0 0.0 0.0 0.0 0.0 0.0 0.0 0.0 0.0 0.0 0.0 0.0 0.0 0.0 0.0 0.0 0.0 0.0 0.0 0.0 0.0 0.6 13.1 7.9 2.6 0.8 0.0 0.1 1.8 3.7 5.6 6.7 6.2 6.0 5.3 4.2 2.9 3.4 4.6 2.4 2.1 0.8 0.8 2.1 2.2 1.0 1.1 0.5 0.4 0.5 0.0 0.0 0.1 0.3
0.0 0.0 0.0 0.0 0.0 0.0 0.0 0.0 0.0 0.0 0.0 0.0 0.0 0.0 0.0 0.0 0.0 0.0 3.5 0.0 0.0 0.3 10.0 12.4 4.7 0.2 0.1 0.4 1.5 3.0 3.8 4.9 4.7 4.4 4.7 4.3 3.1 4.1 5.5 2.0 0.7 0.4 1.1 2.3 1.5 0.5 0.6 0.9 0.1 0.0 0.2 0.2 0.1 0.6
0.0 0.0 0.0 0.0 0.0 0.0 0.0 0.0 0.0 0.0 0.0 0.0 0.0 0.0 0.0 0.0 0.0 0.9 3.4 1.2 0.0 0.0 8.3 9.7 6.0 0.2 0.1 0.4 1.5 2.0 2.2 3.0 3.4 4.5 4.0 2.6 2.2 3.5 4.3 1.7 0.3 0.9 1.6 1.7 0.7 0.4 0.1 0.1 0.2 0.1 0.1 0.0 0.3 0.1
0.0 0.0 0.0 0.0 0.0 0.0 0.0 0.0 0.0 0.0 0.0 0.0 0.0 0.0 0.0 0.0 0.6 2.8 2.8 1.2 1.1 5.0 6.8 8.4 5.1 1.5 0.8 1.4 1.5 1.7 2.1 2.3 3.1 2.9 1.8 0.9 1.4 2.5 2.4 0.3 0.7 1.1 0.6 0.4 0.1 0.0 0.7 0.0 0.0 0.0 0.0 0.1 0.0 0.2
0.0 0.0 0.0 0.0 0.0 0.0 0.0 0.0 0.0 0.0 0.0 0.0 0.0 0.0 2.3 3.2 3.5 3.4 1.6 3.1 4.4 5.2 9.2 6.5 2.4 2.9 2.4 1.3 1.3 1.3 1.2 1.7 1.5 1.1 0.4 0.4 0.6 0.4 0.5 0.3 0.4 0.4 0.4 0.4 0.0 0.0 0.0 0.2 0.0 0.0 0.0 0.0 0.0 0.1
0.0 0.0 0.0 0.0 0.0 0.0 0.0 0.0 0.0 0.0 0.0 0.0 3.0 6.1 10.1 4.5 1.0 1.6 4.9 5.4 5.8 5.1 5.0 3.2 2.4 2.9 2.9 2.0 2.2 2.0 1.3 0.8 0.7 0.5 0.0 0.0 0.2 0.4 0.1 0.2 0.2 0.1 0.2 0.2 0.0 0.0 0.0 0.0 0.0 0.0 0.2 0.4 0.7 0.6
0.0 0.0 0.0 0.0 0.0 0.0 0.0 0.0 0.0 0.0 0.0 5.7 9.6 11.1 8.6 2.3 4.0 5.2 6.6 3.8 2.8 2.2 1.6 0.9 0.9 1.9 2.8 2.7 2.6 2.5 1.4 1.1 1.0 0.4 0.0 0.0 0.2 0.2 0.1 0.0 0.0 0.0 0.1 0.2 0.5 0.5 0.5 0.7 0.7 0.3 0.0 0.0 0.3 0.5
0.0 0.0 0.0 0.0 0.0 0.0 0.0 0.0 0.0 0.4 8.0 6.6 9.4 8.7 8.0 7.0 6.8 5.1 4.2 1.8 1.6 0.9 1.2 0.4 0.7 1.9 2.4 2.3 2.5 2.2 1.4 1.3 0.5 0.3 0.0 0.0 0.0 0.0 0.0 0.0 0.0 0.0 0.0 0.0 0.1 0.2 0.2 0.2 0.5 0.5 0.7 0.5 0.4 0.5
0.0 0.0 0.0 0.0 0.0 0.0 0.0 0.0 0.0 0.0 5.1 12.2 14.8 14.8 9.6 8.2 7.6 4.4 1.2 1.0 1.4 2.0 1.8 1.9 2.1 1.3 2.2 2.4 2.4 1.4 0.8 0.5 0.0 0.0 0.0 0.0 0.0 0.0 0.0 0.0 0.0 0.0 0.0 0.0 0.0 0.0 0.0 0.0 0.1 0.4 0.2 0.1 0.5 0.4
0.0 0.0 0.0 0.0 0.0 0.0 0.0 0.0 0.0 2.2 11.5 19.2 13.5 11.7 5.4 5.1 1.7 1.6 2.0 2.9 4.4 3.4 3.1 2.4 3.2 3.0 2.3 2.2 1.5 1.0 0.9 0.0 0.2 0.0 0.0 0.0 0.0 0.0 0.0 0.0 0.0 0.0 0.0 0.0 0.0 0.0 0.0 0.0 0.0 0.0 0.4 0.4 0.4 0.1
0.0 0.0 0.0 0.0 0.0 0.0 0.0 0.8 4.0 10.4 20.9 20.2 14.7 10.2 6.0 2.3 1.2 3.2 4.1 3.6 5.0 4.6 4.1 3.9 3.4 2.3 2.1 1.5 0.8 0.6 0.4 0.1 0.0 0.0 0.0 0.0 0.0 0.0 0.0 0.0 0.0 0.0 0.0 0.0 0.0 0.0 0.0 0.0 0.0 0.0 0.2 0.4 0.7 0.5
0.0 0.0 0.0 0.0 0.0 1.0 3.0 7.4 13.1 18.7 21.5 18.9 13.4 5.6 3.9 4.1 6.5 6.7 6.7 6.8 6.4 5.2 3.8 2.4 2.1 1.5 0.9 0.5 0.2 0.1 0.0 0.0 0.0 0.0 0.0 0.0 0.0 0.0 0.0 0.0 0.0 0.0 0.0 0.0 0.0 0.0 0.0 0.1 0.2 0.1 0.4 0.7 0.9 0.8
0.0 1.0 0.0 0.0 2.5 5.7 10.8 16.5 19.1 16.9 17.3 11.3 5.5 3.9 4.8 6.0 6.7 6.6 5.3 5.4 4.4 3.2 2.6 1.6 0.9 0.5 0.1 0.0 0.0 0.0 0.0 0.0 0.0 0.0 0.0 0.0 0.0 0.0 0.0 0.0 0.0 0.0 0.0 0.0 0.0 0.0 0.0 0.0 0.2 0.1 0.1 0.6 0.6 0.5
1.0 0.0 0.1 2.0 7.2 11.7 15.6 15.8 18.5 18.3 11.0 6.4 4.6 6.4 7.0 7.5 7.5 7.0 6.0 4.5 2.8 1.6 0.7 0.3 0.0 0.0 0.0 0.0 0.0 0.0 0.0 0.0 0.0 0.0 0.0 0.0 0.0 0.0 0.0 0.0 0.0 0.0 0.0 0.0 0.0 0.0 0.0 0.0 0.0 0.0 0.2 0.3 0.3 0.5
1.3 2.7 1.5 4.2 8.0 10.8 14.6 12.6 11.0 10.4 7.2 6.7 7.5 8.0 7.6 7.3 6.3 4.8 3.1 1.4 0.5 0.0 0.0 0.0 0.0 0.0 0.0 0.0 0.0 0.0 0.0 0.0 0.0 0.0 0.0 0.0 0.0 0.0 0.0 0.0 0.0 0.0 0.0 0.0 0.0 0.0 0.0 0.0 0.0 0.1 0.2 0.4 0.1 0.1
0.5 5.7 8.1 7.8 8.5 11.9 11.8 10.8 3.7 5.5 6.1 5.9 6.4 6.6 5.9 5.1 3.3 1.6 0.1 0.0 0.0 0.0 0.0 0.0 0.0 0.0 0.0 0.0 0.0 0.0 0.0 0.0 0.2 0.2 0.0 0.0 0.0 0.0 0.0 0.0 0.0 0.0 0.0 0.0 0.0 0.5 0.4 0.0 0.0 0.0 0.1 0.7 0.7 0.0
8.7 11.6 8.5 8.1 10.9 10.7 9.4 7.5 4.5 4.4 5.1 4.0 5.4 4.0 3.5 2.1 0.3 0.0 0.0 0.0 0.0 0.0 0.0 0.0 0.0 0.0 0.0 0.0 0.0 0.0 0.0 0.1 0.0 0.2 0.0 0.2 0.6 0.0 0.0 0.0 0.0 0.0 0.0 0.0 0.0 0.0 0.1 0.0 0.0 0.0 0.1 0.0 0.0 0.0
9.8 7.8 9.5 9.5 10.8 9.2 7.8 6.5 4.0 4.0 3.3 4.6 4.0 2.8 2.2 0.7 0.0 0.0 0.0 0.0 0.0 0.0 0.0 0.0 0.0 0.0 0.0 0.0 0.0 0.0 0.0 0.0 0.0 0.0 0.1 0.5 0.0 0.0 0.0 0.0 0.1 0.0 0.0 0.0 0.0 0.0 0.0 0.0 0.0 0.8 0.2 0.0 0.0 0.0
6.1 6.7 7.4 8.2 7.6 5.9 6.4 4.3 4.0 3.5 2.8 3.5 3.0 2.1 1.1 0.0 0.0 0.0 0.0 0.0 0.0 0.0 0.0 0.0 0.0 0.0 0.0 0.0 0.0 0.0 0.0 0.0 0.0 0.0 0.0 0.0 0.0 0.0 0.0 0.0 0.0 0.0 0.0 0.0 0.0 0.0 0.0 0.3 0.0 0.1 0.1 0.0 0.0 0.0
4.6 6.7 7.2 6.2 4.6 4.4 2.9 3.1 3.5 3.1 3.0 2.7 2.3 1.1 0.0 0.0 0.0 0.0 0.0 0.0 0.0 0.0 0.0 0.0 0.0 0.0 0.0 0.0 0.0 0.0 0.0 0.0 0.0 0.0 0.0 0.0 0.0 0.0 0.0 0.0 0.0 0.0 0.0 0.0 0.0 0.0 0.0 0.0 0.2 0.0 0.0 0.0 0.0 0.0
6.1 7.2 6.1 3.6 2.4 2.5 3.6 4.1 3.5 2.6 2.7 2.0 0.0 0.0 0.0 0.0 0.0 0.0 0.0 0.0 0.0 0.0 0.0 0.0 0.0 0.0 0.0 0.0 0.0 0.0 0.0 0.0 0.0 0.0 0.0 0.0 0.0 0.0 0.0 0.0 0.0 0.0 0.0 0.0 0.0 0.0 0.0 0.0 0.0 0.0 0.0 0.0 0.0 0.0
5.3 5.2 2.7 2.7 3.2 3.5 4.1 4.0 3.2 2.0 0.8 0.0 0.0 0.0 0.0 0.0 0.0 0.0 0.0 0.0 0.0 0.0 0.0 0.0 0.0 0.0 0.0 0.0 0.0 0.0 0.0 0.0 0.0 0.0 0.0 0.0 0.0 0.0 0.0 0.0 0.0 0.0 0.0 0.0 0.1 0.0 0.0 0.0 0.0 0.0 0.0 0.0 1.2 2.4
4.5 3.9 2.8 3.2 2.8 3.1 2.6 2.0 0.7 0.0 0.0 0.0 0.0 0.0 0.0 0.0 0.0 0.0 0.0 0.0 0.0 0.0 0.0 0.0 0.0 0.0 0.0 0.0 0.0 0.0 0.0 0.0 0.0 0.0 0.0 0.0 0.0 0.0 0.0 0.1 0.1 0.0 0.4 0.4 0.2 0.4 0.5 0.0 0.0 0.0 0.0 0.0 0.0 0.0
3.3 4.0 4.4 4.2 2.5 0.8 0.0 0.0 0.0 0.0 0.0 0.0 0.0 0.0 0.0 0.0 0.0 0.0 0.0 0.0 0.0 0.0 0.0 0.0 0.0 0.0 0.0 0.0 0.0 0.0 0.0 0.0 0.0 0.0 0.0 0.0 0.0 0.0 0.0 0.1 0.1 0.5 1.4 0.3 0.7 0.8 0.2 0.1 0.4 0.0 0.1 0.1 0.0 0.0
4.1 4.2 2.3 1.3 0.4 0.1 0.0 0.0 0.0 0.0 0.0 0.0 0.0 0.0 0.0 0.0 0.0 0.0 0.0 0.0 0.0 0.0 0.0 0.0 0.0 0.0 0.0 0.0 0.0 0.0 0.0 0.0 0.0 0.0 0.0 0.0 0.0 0.0 0.0 0.0 0.0 0.0 0.0 0.0 0.3 1.7 1.6 1.8 1.8 2.4 0.6 0.2 0.0 0.0
3.2 1.2 0.4 0.2 0.0 0.0 0.0 0.0 0.0 0.0 0.0 0.0 0.0 0.0 0.0 0.0 0.0 0.0 0.0 0.0 0.0 0.0 0.0 0.0 0.0 0.0 0.0 0.0 0.0 0.0 0.0 0.0 0.0 0.0 0.0 0.1 0.1 0.0 0.0 0.0 0.0 0.0 0.0 0.0 0.0 0.0 0.9 1.2 1.6 1.2 0.6 0.2 0.1 0.1
0.7 0.4 0.0 0.0 0.0 0.0 0.0 0.0 0.0 0.0 0.0 0.0 0.0 0.0 0.0 0.0 0.0 0.0 0.0 0.0 0.0 0.0 0.0 0.0 0.0 0.0 0.0 0.0 0.0 0.0 0.0 0.0 0.0 0.0 0.0 0.0 0.2 0.3 0.2 0.1 0.1 0.1 0.1 0.0 0.1 0.1 0.3 0.5 0.5 0.4 0.4 0.3 0.3 0.4
0.1 0.0 0.0 0.0 0.0 0.0 0.0 0.0 0.0 0.0 0.0 0.0 0.0 0.0 0.0 0.0 0.0 0.0 0.0 0.0 0.0 0.0 0.0 0.0 0.0 0.0 0.0 0.0 0.0 0.0 0.1 0.1 0.1 0.1 0.1 0.2 0.3 0.5 0.7 0.4 0.3 0.2 0.2 0.6 0.8 0.8 0.8 0.8 0.8 0.8 0.5 0.5 0.5 0.4
0.0 0.0 0.0 0.0 0.0 0.0 0.0 0.0 0.0 0.0 0.0 0.0 0.0 0.0 0.0 0.0 0.0 0.0 0.0 0.0 0.0 0.0 0.0 0.0 0.0 0.0 0.0 0.0 0.0 0.0 0.2 0.4 0.4 0.6 1.1 1.4 2.0 2.8 2.2 0.7 0.5 0.6 0.6 1.3 1.5 1.5 1.3 1.2 1.1 0.9 1.0 0.8 0.6 0.6